Time,TemperatureF,DewpointF,PressureIn,WindDirection,WindDirectionDegrees,WindSpeedMPH,WindSpeedGustMPH,Humidity,HourlyPrecipIn,Conditions,Clouds,dailyrainin,SoftwareType,DateUTC
2013-06-19 00:01:00,62.0,41.0,29.86,WNW,290,26.0,42.0,46,0.00,,,0.00,,2013-06-19 07:01:00,
2013-06-19 00:11:00,62.0,40.0,29.85,WNW,286,27.0,47.0,44,0.00,,,0.00,,2013-06-19 07:11:00,
2013-06-19 00:22:00,62.0,40.0,29.85,WNW,289,25.0,40.0,45,0.00,,,0.00,,2013-06-19 07:22:00,
2013-06-19 00:33:00,62.0,40.0,29.85,WNW,293,25.0,43.0,45,0.00,,,0.00,,2013-06-19 07:33:00,
2013-06-19 00:43:00,62.0,40.0,29.85,WNW,290,27.0,43.0,45,0.00,,,0.00,,2013-06-19 07:43:00,
2013-06-19 00:53:00,62.0,41.0,29.85,WNW,286,26.0,43.0,46,0.00,,,0.00,,2013-06-19 07:53:00,
2013-06-19 01:01:00,62.0,40.0,29.85,WNW,292,26.0,38.0,45,0.00,,,0.00,,2013-06-19 08:01:00,
2013-06-19 01:11:00,62.0,40.0,29.83,WNW,287,26.0,40.0,45,0.00,,,0.00,,2013-06-19 08:11:00,
2013-06-19 01:22:00,61.0,40.0,29.83,WNW,284,28.0,40.0,46,0.00,,,0.00,,2013-06-19 08:22:00,
2013-06-19 01:33:00,61.0,41.0,29.82,WNW,289,27.0,42.0,47,0.00,,,0.00,,2013-06-19 08:33:00,
2013-06-19 01:42:00,60.0,40.0,29.82,WNW,288,30.0,42.0,47,0.00,,,0.00,,2013-06-19 08:42:00,
2013-06-19 01:53:00,60.0,40.0,29.83,WNW,283,29.0,43.0,48,0.00,,,0.00,,2013-06-19 08:53:00,
2013-06-19 02:01:00,58.0,40.0,29.83,West,281,27.0,39.0,51,0.00,,,0.00,,2013-06-19 09:01:00,
2013-06-19 02:11:00,58.0,41.0,29.84,West,274,25.0,39.0,53,0.00,,,0.00,,2013-06-19 09:11:00,
2013-06-19 02:22:00,57.0,41.0,29.85,West,270,23.0,41.0,56,0.00,,,0.00,,2013-06-19 09:22:00,
2013-06-19 02:34:00,56.0,41.0,29.85,West,269,26.0,35.0,58,0.00,,,0.00,,2013-06-19 09:34:00,
2013-06-19 02:43:00,55.0,41.0,29.83,West,260,23.0,44.0,60,0.00,,,0.00,,2013-06-19 09:43:00,
2013-06-19 02:53:00,55.0,41.0,29.83,West,259,24.0,34.0,59,0.00,,,0.00,,2013-06-19 09:53:00,
2013-06-19 03:01:00,59.0,39.0,29.81,West,280,25.0,41.0,47,0.00,,,0.00,,2013-06-19 10:01:00,
2013-06-19 03:11:00,59.0,39.0,29.81,West,280,25.0,41.0,47,0.00,,,0.00,,2013-06-19 10:11:00,
2013-06-19 03:22:00,59.0,38.0,29.80,WNW,286,30.0,42.0,45,0.00,,,0.00,,2013-06-19 10:22:00,
2013-06-19 03:33:00,59.0,38.0,29.80,WNW,288,28.0,42.0,46,0.00,,,0.00,,2013-06-19 10:33:00,
2013-06-19 03:42:00,58.0,38.0,29.81,WNW,289,28.0,44.0,48,0.00,,,0.00,,2013-06-19 10:42:00,
2013-06-19 03:52:00,58.0,39.0,29.82,WNW,289,26.0,39.0,49,0.00,,,0.00,,2013-06-19 10:52:00,
2013-06-19 04:01:00,57.0,38.0,29.81,WNW,289,24.0,36.0,49,0.00,,,0.00,,2013-06-19 11:01:00,
2013-06-19 04:11:00,57.0,38.0,29.81,WNW,289,27.0,42.0,49,0.00,,,0.00,,2013-06-19 11:11:00,
2013-06-19 04:22:00,57.0,38.0,29.81,WNW,291,23.0,36.0,49,0.00,,,0.00,,2013-06-19 11:22:00,
2013-06-19 04:32:00,57.0,38.0,29.81,WNW,282,21.0,36.0,49,0.00,,,0.00,,2013-06-19 11:32:00,
2013-06-19 04:42:00,57.0,37.0,29.84,WNW,293,16.0,33.0,47,0.00,,,0.00,,2013-06-19 11:42:00,
2013-06-19 04:53:00,57.0,37.0,29.85,WNW,286,14.0,31.0,47,0.00,,,0.00,,2013-06-19 11:53:00,
2013-06-19 05:01:00,57.0,37.0,29.86,West,267,12.0,22.0,47,0.00,,,0.00,,2013-06-19 12:01:00,
2013-06-19 05:11:00,55.0,37.0,29.88,SSE,161,3.0,7.0,50,0.00,,,0.00,,2013-06-19 12:11:00,
2013-06-19 05:22:00,54.0,38.0,29.88,West,280,15.0,27.0,54,0.00,,,0.00,,2013-06-19 12:22:00,
2013-06-19 05:34:00,54.0,38.0,29.88,West,279,17.0,27.0,55,0.00,,,0.00,,2013-06-19 12:34:00,
2013-06-19 05:44:00,53.0,38.0,29.88,West,274,14.0,31.0,57,0.00,,,0.00,,2013-06-19 12:44:00,
2013-06-19 05:52:00,53.0,38.0,29.87,WNW,290,14.0,29.0,57,0.00,,,0.00,,2013-06-19 12:52:00,
2013-06-19 06:02:00,53.0,38.0,29.88,WNW,302,18.0,34.0,57,0.00,,,0.00,,2013-06-19 13:02:00,
2013-06-19 06:11:00,53.0,38.0,29.88,WNW,290,13.0,25.0,57,0.00,,,0.00,,2013-06-19 13:11:00,
2013-06-19 06:22:00,53.0,38.0,29.88,WNW,284,12.0,24.0,56,0.00,,,0.00,,2013-06-19 13:22:00,
2013-06-19 06:33:00,53.0,38.0,29.89,West,281,11.0,29.0,56,0.00,,,0.00,,2013-06-19 13:33:00,
2013-06-19 06:42:00,53.0,37.0,29.90,WNW,288,15.0,29.0,55,0.00,,,0.00,,2013-06-19 13:42:00,
2013-06-19 06:53:00,53.0,37.0,29.91,West,276,12.0,29.0,55,0.00,,,0.00,,2013-06-19 13:53:00,
2013-06-19 07:01:00,53.0,37.0,29.90,WNW,285,15.0,24.0,54,0.00,,,0.00,,2013-06-19 14:01:00,
2013-06-19 07:11:00,54.0,37.0,29.91,West,271,8.0,19.0,52,0.00,,,0.00,,2013-06-19 14:11:00,
2013-06-19 07:22:00,54.0,36.0,29.90,West,275,10.0,18.0,51,0.00,,,0.00,,2013-06-19 14:22:00,
2013-06-19 07:33:00,55.0,36.0,29.91,SW,228,4.0,12.0,48,0.00,,,0.00,,2013-06-19 14:33:00,
2013-06-19 07:43:00,56.0,35.0,29.91,WNW,296,7.0,20.0,45,0.00,,,0.00,,2013-06-19 14:43:00,
2013-06-19 07:52:00,57.0,35.0,29.91,NW,311,10.0,24.0,43,0.00,,,0.00,,2013-06-19 14:52:00,
2013-06-19 08:01:00,58.0,35.0,29.91,WNW,282,9.0,20.0,42,0.00,,,0.00,,2013-06-19 15:01:00,
2013-06-19 08:11:00,58.0,35.0,29.90,WNW,295,17.0,35.0,42,0.00,,,0.00,,2013-06-19 15:11:00,
2013-06-19 08:22:00,58.0,35.0,29.91,WNW,295,12.0,32.0,42,0.00,,,0.00,,2013-06-19 15:22:00,
2013-06-19 08:33:00,59.0,34.0,29.91,WNW,286,13.0,29.0,39,0.00,,,0.00,,2013-06-19 15:33:00,
2013-06-19 08:42:00,59.0,33.0,29.91,WNW,282,19.0,29.0,38,0.00,,,0.00,,2013-06-19 15:42:00,
2013-06-19 08:52:00,60.0,34.0,29.90,West,279,22.0,37.0,37,0.00,,,0.00,,2013-06-19 15:52:00,
2013-06-19 09:01:00,61.0,32.0,29.91,WNW,286,18.0,28.0,34,0.00,,,0.00,,2013-06-19 16:01:00,
2013-06-19 09:11:00,61.0,33.0,29.91,WNW,284,20.0,30.0,35,0.00,,,0.00,,2013-06-19 16:11:00,
2013-06-19 09:21:00,61.0,34.0,29.92,WNW,282,12.0,21.0,36,0.00,,,0.00,,2013-06-19 16:21:00,
2013-06-19 09:33:00,62.0,35.0,29.90,West,261,17.0,27.0,37,0.00,,,0.00,,2013-06-19 16:33:00,
2013-06-19 09:43:00,63.0,36.0,29.90,West,261,13.0,24.0,36,0.00,,,0.00,,2013-06-19 16:43:00,
2013-06-19 09:52:00,63.0,35.0,29.90,WSW,250,8.0,25.0,35,0.00,,,0.00,,2013-06-19 16:52:00,
2013-06-19 10:02:00,63.0,34.0,29.90,WSW,255,10.0,23.0,34,0.00,,,0.00,,2013-06-19 17:02:00,
2013-06-19 10:11:00,65.0,34.0,29.91,SW,234,9.0,22.0,32,0.00,,,0.00,,2013-06-19 17:11:00,
2013-06-19 10:22:00,65.0,34.0,29.91,West,262,11.0,19.0,31,0.00,,,0.00,,2013-06-19 17:22:00,
2013-06-19 10:33:00,65.0,34.0,29.91,West,266,16.0,26.0,32,0.00,,,0.00,,2013-06-19 17:33:00,
2013-06-19 10:43:00,65.0,34.0,29.91,WNW,286,14.0,27.0,31,0.00,,,0.00,,2013-06-19 17:43:00,
2013-06-19 10:53:00,66.0,34.0,29.90,WNW,282,18.0,31.0,30,0.00,,,0.00,,2013-06-19 17:53:00,
2013-06-19 11:01:00,66.0,33.0,29.89,West,276,19.0,35.0,29,0.00,,,0.00,,2013-06-19 18:01:00,
2013-06-19 11:11:00,66.0,33.0,29.89,West,268,22.0,35.0,29,0.00,,,0.00,,2013-06-19 18:11:00,
2013-06-19 11:23:00,67.0,32.0,29.88,West,280,26.0,42.0,27,0.00,,,0.00,,2013-06-19 18:23:00,
2013-06-19 11:33:00,67.0,31.0,29.88,West,279,27.0,38.0,26,0.00,,,0.00,,2013-06-19 18:33:00,
2013-06-19 11:43:00,68.0,31.0,29.87,WNW,282,26.0,38.0,25,0.00,,,0.00,,2013-06-19 18:43:00,
2013-06-19 11:52:00,69.0,30.0,29.87,WNW,284,29.0,47.0,23,0.00,,,0.00,,2013-06-19 18:52:00,
2013-06-19 12:01:00,69.0,29.0,29.85,WNW,285,27.0,39.0,22,0.00,,,0.00,,2013-06-19 19:01:00,
2013-06-19 12:11:00,70.0,26.0,29.85,WNW,292,29.0,41.0,19,0.00,,,0.00,,2013-06-19 19:11:00,
2013-06-19 12:22:00,71.0,28.0,29.85,WNW,292,27.0,44.0,20,0.00,,,0.00,,2013-06-19 19:22:00,
2013-06-19 12:32:00,71.0,27.0,29.85,WNW,291,29.0,45.0,19,0.00,,,0.00,,2013-06-19 19:32:00,
2013-06-19 12:43:00,72.0,26.0,29.86,WNW,285,24.0,39.0,18,0.00,,,0.00,,2013-06-19 19:43:00,
2013-06-19 12:52:00,71.0,27.0,29.86,WNW,296,30.0,43.0,19,0.00,,,0.00,,2013-06-19 19:52:00,
2013-06-19 13:02:00,72.0,27.0,29.84,WNW,285,26.0,43.0,19,0.00,,,0.00,,2013-06-19 20:02:00,
2013-06-19 13:11:00,72.0,27.0,29.85,WNW,291,25.0,37.0,19,0.00,,,0.00,,2013-06-19 20:11:00,
2013-06-19 13:22:00,71.0,27.0,29.86,WNW,283,33.0,45.0,19,0.00,,,0.00,,2013-06-19 20:22:00,
2013-06-19 13:33:00,72.0,26.0,29.86,WNW,288,32.0,44.0,18,0.00,,,0.00,,2013-06-19 20:33:00,
2013-06-19 13:42:00,72.0,27.0,29.88,WNW,284,29.0,40.0,19,0.00,,,0.00,,2013-06-19 20:42:00,
2013-06-19 13:52:00,72.0,27.0,29.88,WNW,289,28.0,41.0,19,0.00,,,0.00,,2013-06-19 20:52:00,
2013-06-19 14:01:00,72.0,26.0,29.87,WNW,285,27.0,43.0,18,0.00,,,0.00,,2013-06-19 21:01:00,
2013-06-19 14:11:00,72.0,26.0,29.87,WNW,287,29.0,43.0,18,0.00,,,0.00,,2013-06-19 21:11:00,
2013-06-19 14:22:00,72.0,27.0,29.86,WNW,289,28.0,43.0,19,0.00,,,0.00,,2013-06-19 21:22:00,
2013-06-19 14:33:00,72.0,27.0,29.86,WNW,289,28.0,43.0,19,0.00,,,0.00,,2013-06-19 21:33:00,
2013-06-19 14:44:00,72.0,30.0,29.86,WNW,287,28.0,43.0,21,0.00,,,0.00,,2013-06-19 21:44:00,
2013-06-19 14:52:00,72.0,29.0,29.85,WNW,289,27.0,43.0,20,0.00,,,0.00,,2013-06-19 21:52:00,
2013-06-19 15:01:00,72.0,30.0,29.86,WNW,289,30.0,40.0,21,0.00,,,0.00,,2013-06-19 22:01:00,
2013-06-19 15:11:00,72.0,30.0,29.86,WNW,296,25.0,39.0,21,0.00,,,0.00,,2013-06-19 22:11:00,
2013-06-19 15:22:00,72.0,30.0,29.86,WNW,292,28.0,41.0,21,0.00,,,0.00,,2013-06-19 22:22:00,
2013-06-19 15:34:00,72.0,31.0,29.85,WNW,294,30.0,45.0,22,0.00,,,0.00,,2013-06-19 22:34:00,
2013-06-19 15:42:00,72.0,31.0,29.85,WNW,293,25.0,40.0,22,0.00,,,0.00,,2013-06-19 22:42:00,
2013-06-19 15:53:00,73.0,31.0,29.86,WNW,291,23.0,42.0,21,0.00,,,0.00,,2013-06-19 22:53:00,
2013-06-19 16:01:00,72.0,32.0,29.85,WNW,290,27.0,38.0,23,0.00,,,0.00,,2013-06-19 23:01:00,
2013-06-19 16:11:00,72.0,32.0,29.85,WNW,288,28.0,40.0,23,0.00,,,0.00,,2013-06-19 23:11:00,
2013-06-19 16:22:00,72.0,33.0,29.85,WNW,290,25.0,40.0,24,0.00,,,0.00,,2013-06-19 23:22:00,
2013-06-19 16:33:00,71.0,33.0,29.85,WNW,284,31.0,45.0,25,0.00,,,0.00,,2013-06-19 23:33:00,
2013-06-19 16:43:00,71.0,34.0,29.85,WNW,282,27.0,42.0,26,0.00,,,0.00,,2013-06-19 23:43:00,
2013-06-19 16:52:00,71.0,34.0,29.85,WNW,285,26.0,41.0,26,0.00,,,0.00,,2013-06-19 23:52:00,
2013-06-19 17:01:00,71.0,33.0,29.85,WNW,283,25.0,39.0,25,0.00,,,0.00,,2013-06-20 00:01:00,
2013-06-19 17:11:00,70.0,34.0,29.86,WNW,284,25.0,35.0,27,0.00,,,0.00,,2013-06-20 00:11:00,
2013-06-19 17:22:00,70.0,35.0,29.86,WNW,282,24.0,41.0,28,0.00,,,0.00,,2013-06-20 00:22:00,
2013-06-19 18:01:00,69.0,35.0,29.83,WNW,283,28.0,39.0,28,0.00,,,0.00,,2013-06-20 01:01:00,
2013-06-19 18:11:00,68.0,35.0,29.84,WNW,285,27.0,37.0,29,0.00,,,0.00,,2013-06-20 01:11:00,
2013-06-19 18:22:00,67.0,34.0,29.85,WNW,293,30.0,46.0,29,0.00,,,0.00,,2013-06-20 01:22:00,
2013-06-19 18:33:00,67.0,35.0,29.85,WNW,289,32.0,45.0,30,0.00,,,0.00,,2013-06-20 01:33:00,
2013-06-19 18:44:00,66.0,34.0,29.85,WNW,286,30.0,44.0,30,0.00,,,0.00,,2013-06-20 01:44:00,
2013-06-19 18:52:00,66.0,34.0,29.85,WNW,286,29.0,44.0,30,0.00,,,0.00,,2013-06-20 01:52:00,
2013-06-19 19:02:00,65.0,34.0,29.86,WNW,295,32.0,44.0,32,0.00,,,0.00,,2013-06-20 02:02:00,
2013-06-19 19:11:00,64.0,34.0,29.85,WNW,294,21.0,42.0,33,0.00,,,0.00,,2013-06-20 02:11:00,
2013-06-19 19:23:00,64.0,34.0,29.83,WNW,293,32.0,49.0,33,0.00,,,0.00,,2013-06-20 02:23:00,
2013-06-19 19:33:00,63.0,34.0,29.85,WNW,287,33.0,52.0,34,0.00,,,0.00,,2013-06-20 02:33:00,
2013-06-19 19:43:00,63.0,34.0,29.85,WNW,289,29.0,45.0,34,0.00,,,0.00,,2013-06-20 02:43:00,
2013-06-19 19:52:00,63.0,34.0,29.84,WNW,299,38.0,52.0,34,0.00,,,0.00,,2013-06-20 02:52:00,
2013-06-19 20:02:00,63.0,35.0,29.84,WNW,294,32.0,52.0,35,0.00,,,0.00,,2013-06-20 03:02:00,
2013-06-19 20:11:00,63.0,35.0,29.85,WNW,294,33.0,51.0,35,0.00,,,0.00,,2013-06-20 03:11:00,
2013-06-19 20:22:00,62.0,35.0,29.85,WNW,289,32.0,49.0,36,0.00,,,0.00,,2013-06-20 03:22:00,
2013-06-19 20:32:00,62.0,35.0,29.83,WNW,293,32.0,49.0,37,0.00,,,0.00,,2013-06-20 03:32:00,
2013-06-19 20:43:00,61.0,35.0,29.83,WNW,291,30.0,52.0,37,0.00,,,0.00,,2013-06-20 03:43:00,
2013-06-19 20:53:00,61.0,35.0,29.83,WNW,286,33.0,49.0,38,0.00,,,0.00,,2013-06-20 03:53:00,
2013-06-19 21:01:00,61.0,35.0,29.83,WNW,286,38.0,49.0,38,0.00,,,0.00,,2013-06-20 04:01:00,
2013-06-19 21:11:00,61.0,36.0,29.83,WNW,290,35.0,50.0,39,0.00,,,0.00,,2013-06-20 04:11:00,
2013-06-19 21:22:00,60.0,36.0,29.83,WNW,292,34.0,50.0,40,0.00,,,0.00,,2013-06-20 04:22:00,
2013-06-19 21:33:00,60.0,36.0,29.83,WNW,294,39.0,51.0,41,0.00,,,0.00,,2013-06-20 04:33:00,
2013-06-19 21:43:00,60.0,37.0,29.83,WNW,292,35.0,53.0,42,0.00,,,0.00,,2013-06-20 04:43:00,
2013-06-19 21:53:00,60.0,37.0,29.85,WNW,292,38.0,54.0,42,0.00,,,0.00,,2013-06-20 04:53:00,
2013-06-19 22:01:00,60.0,37.0,29.85,WNW,291,35.0,54.0,43,0.00,,,0.00,,2013-06-20 05:01:00,
2013-06-19 22:11:00,59.0,37.0,29.85,WNW,293,34.0,47.0,43,0.00,,,0.00,,2013-06-20 05:11:00,
2013-06-19 22:22:00,59.0,37.0,29.86,WNW,293,37.0,48.0,43,0.00,,,0.00,,2013-06-20 05:22:00,
2013-06-19 22:33:00,59.0,37.0,29.85,WNW,289,35.0,50.0,43,0.00,,,0.00,,2013-06-20 05:33:00,
2013-06-19 22:43:00,59.0,37.0,29.85,WNW,287,35.0,49.0,44,0.00,,,0.00,,2013-06-20 05:43:00,
2013-06-19 22:52:00,59.0,37.0,29.85,WNW,289,36.0,49.0,44,0.00,,,0.00,,2013-06-20 05:52:00,
2013-06-19 23:01:00,59.0,38.0,29.86,WNW,288,32.0,50.0,45,0.00,,,0.00,,2013-06-20 06:01:00,
2013-06-19 23:11:00,59.0,38.0,29.86,WNW,287,35.0,52.0,46,0.00,,,0.00,,2013-06-20 06:11:00,
2013-06-19 23:22:00,59.0,38.0,29.86,WNW,286,31.0,46.0,46,0.00,,,0.00,,2013-06-20 06:22:00,
2013-06-19 23:33:00,58.0,38.0,29.85,WNW,291,30.0,49.0,47,0.00,,,0.00,,2013-06-20 06:33:00,
2013-06-19 23:43:00,59.0,39.0,29.84,WNW,287,36.0,51.0,48,0.00,,,0.00,,2013-06-20 06:43:00,
2013-06-19 23:53:00,59.0,39.0,29.85,WNW,292,36.0,51.0,48,0.00,,,0.00,,2013-06-20 06:53:00,